Location: Karlsruhe-M�hlburg
(49.0084°N, 8.3523°E)
Time: 23:59:26
(UTC+00:00)

Daily predictions for brighter satellites

Satellite Brightness Start Highest point End
(mag) Time Altitude Azimuth Time Altitude Azimuth Time Altitude Azimuth
COSMOS 2455 3.9 15:58:33 10° SSE 16:03:28 27° ESE 16:08:23 10° NE
Cosmos 990 Rocket 4.0 15:58:32 10° NNW 16:03:46 80° ENE 16:08:56 10° SSE
Cosmos 2034 Rocket 4.1 15:58:05 10° S 16:04:04 58° E 16:10:06 10° NNE
Lacrosse 5 rocket 2.2 16:01:29 10° NW 16:04:53 29° NNE 16:08:25 10° ENE
SMAP 3.6 16:00:45 10° SE 16:05:02 38° ENE 16:09:20 10° N
Cosmos 2360 Rocket 4.0 16:05:23 10° N 16:07:13 11° NNE 16:09:02 10° NE
ATLAS CENTAUR R/B 3.7 15:56:25 10° SSW 16:07:17 52° SE 16:11:49 10° ENE
Cosmos 1656 4.2 16:04:38 10° NNW 16:10:08 66° WSW 16:15:41 10° SSE
Cosmos 44 Rocket 4.4 16:07:43 10° NNW 16:11:52 25° NNE 16:15:54 10° E
Cosmos 1633 Rocket 4.5 16:09:42 10° NNE 16:12:35 17° ENE 16:15:27 10° ESE
USA 234 3.3 16:06:04 10° ESE 16:12:35 74° NNE 16:19:07 10° NW
SL-24 R/B - RUBIN 2 3.8 16:09:18 10° NNW 16:13:47 47° NE 16:18:00 10° ESE
NOSS 3-1 (A) 4.3 16:06:58 10° NW 16:14:24 82° SW 16:23:08 10° SE
ISS -3.8 16:12:05 10° WNW 16:15:29 80° NNE 16:18:53 10° ESE
NOAA 6 4.2 16:12:14 10° SE 16:17:11 51° ENE 16:22:09 10° N
Cosmos 1408 Rocket 4.0 16:14:40 10° NNW 16:19:00 66° W 16:23:21 10° S
NOSS 2-2 (D) 4.3 16:14:11 10° NW 16:19:02 60° NE 16:25:48 10° SE
NOSS 2-2 (E) 4.3 16:14:07 10° NW 16:19:11 70° NE 16:26:18 10° SE
Cosmos 1666 4.1 16:19:11 10° NNE 16:21:48 18° ENE 16:24:24 10° ESE
Cosmos 1634 Rocket 4.5 16:18:07 10° SSE 16:23:57 41° E 16:29:49 10° NNE
Cosmos 1151 Rocket 4.4 16:21:27 10° SE 16:24:27 18° E 16:27:28 10° NE
Cosmos 2026 Rocket 4.1 16:20:06 10° N 16:26:06 52° ENE 16:32:00 10° SSE
PSLV R/B 4.4 16:23:51 10° SE 16:27:10 32° ENE 16:30:32 10° N
Cosmos 1743 Rocket 3.5 16:24:00 10° N 16:28:21 86° E 16:32:40 10° S
Cosmos 2322 Rocket 3.6 16:24:45 10° N 16:28:41 19° NE 16:32:01 12° ENE
USA 305 3.5 16:25:09 10° WNW 16:29:12 41° N 16:32:40 13° ENE
CZ-4B R/B 2.9 16:25:48 10° SSE 16:29:48 81° WSW 16:33:39 10° NNW
Cosmos 2195 Rocket 4.5 16:23:48 10° N 16:29:56 65° ENE 16:36:06 10° SSE
Cosmos 1697 Rocket 2.7 16:24:29 10° NNW 16:30:09 87° WSW 16:35:46 10° SSE
Cosmos 1933 3.5 16:26:58 10° S 16:30:53 52° E 16:34:48 10° NNE
Cosmos 858 Rocket 4.5 16:26:13 10° NNW 16:31:32 70° ENE 16:36:47 10° SSE
SL-08 R/B 3.5 16:30:12 10° N 16:34:55 72° WNW 16:39:32 10° SSW
Cosmos 1980 Rocket 2.2 16:29:19 10° NNW 16:34:56 58° ENE 16:40:29 10° SE
Okean O Rocket 2.7 16:33:21 10° ESE 16:36:52 23° ENE 16:40:23 10° N
FengYun 1-2 T 4.3 16:32:45 10° SSE 16:38:21 90° WSW 16:43:56 10° NNW
Cosmos 540 Rocket 3.6 16:33:24 10° S 16:38:22 56° ESE 16:43:23 10° NNE
SJ 16-02 4.5 16:36:43 10° WNW 16:39:15 15° W 16:41:46 10° SW
Cosmos 2369 3.7 16:33:32 10° NNW 16:39:19 76° ENE 16:45:02 10° SSE
Cosmos 1666 Rocket 4.2 16:35:32 10° N 16:39:36 34° ENE 16:43:37 10° SE
MOS 1-B 4.5 16:37:20 10° SE 16:42:53 51° ENE 16:48:28 10° N
Cosmos 1809 Rocket 4.4 16:37:30 10° N 16:43:38 76° E 16:49:42 10° SSE
Cosmos 1812 3.6 16:42:54 10° SSE 16:46:15 29° E 16:48:49 15° NE
SL-16 R/B 3.1 16:42:45 10° NNW 16:47:34 27° NE 16:51:24 14° E
ERBS 3.9 16:45:28 10° WNW 16:48:02 22° N 16:49:40 15° NNE
Meteor 2-21 Rocket 4.5 16:43:24 10° N 16:49:25 55° ENE 16:55:20 10° SSE
CORIOLIS 4.1 16:44:57 10° SSE 16:50:22 84° ENE 16:55:50 10° NNW
Cosmos 2082 Rocket 2.5 16:46:50 10° S 16:52:16 49° ESE 16:56:54 14° NE
Cosmos 468 Rocket 4.3 16:52:23 10° SSW 16:57:31 67° WNW 17:02:44 10° NNE
Cosmos 2333 Rocket 3.9 16:57:03 10° N 17:00:02 14° NNE 17:00:43 14° NE
MOS 1-B Rocket 4.3 16:55:26 10° NNE 17:01:11 50° E 17:07:42 10° S
USA 306 3.4 16:57:28 10° WNW 17:01:33 43° N 17:03:34 25° ENE
Cosmos 2278 3.6 16:57:16 10° NNW 17:02:59 68° ENE 17:08:39 10° SE
CZ-4B DEB 4.2 16:57:42 10° SSE 17:03:14 88° WSW 17:08:45 10° NNW
Cosmos 1602 4.3 16:59:44 10° NNW 17:03:33 59° W 17:07:21 10° S
Sich 1 3.1 16:59:25 10° NNW 17:03:43 82° W 17:08:03 10° S
Cosmos 1818 3.7 16:58:41 10° NNW 17:04:04 52° NE 17:08:58 12° ESE
Cosmos 1939 Rocket 3.8 17:00:58 10° S 17:04:59 53° W 17:09:00 10° NNW
ARGOS 3.4 17:01:29 10° SE 17:06:38 47° ENE 17:11:48 10° N
Cosmos 1805 Rocket 4.2 17:04:06 10° NNW 17:08:22 58° W 17:12:37 10° S
Cosmos 1833 Rocket 3.1 17:06:34 10° SW 17:12:09 64° WNW 17:17:33 11° NNE
COSMOS 2406 3.4 17:10:17 10° SW 17:16:02 75° WNW 17:21:11 13° NNE
GEOS 3 Rocket 4.1 17:13:44 25° E 17:16:09 39° NE 17:20:57 10° NNW
deb Chang Zheng 4 3.5 17:13:42 10° SSE 17:17:56 61° ENE 17:22:13 10° N
USA 307 3.4 17:16:41 10° WNW 17:20:48 45° N 17:21:59 35° NE
Cosmos 2219 Rocket 4.0 17:17:51 10° N 17:20:35 15° NNE 17:20:35 15° NNE
USA 267 3.3 17:16:34 22° NE 17:21:05 81° NNW 17:27:37 10° WSW
Cosmos 1782 3.2 17:19:32 10° SSW 17:23:29 63° WNW 17:27:27 10° N
CZ-2C R/B 2.6 17:21:47 14° NNE 17:26:17 57° E 17:31:21 10° S
Cosmos 2208 Rocket 4.2 17:21:49 10° S 17:27:01 50° ESE 17:29:27 29° NE
Cosmos 1500 4.2 17:24:37 10° NNW 17:28:14 46° W 17:31:48 10° SSW
SL-08 RB Rocket 3.9 17:24:32 10° SE 17:28:59 48° ENE 17:33:25 10° N
CZ-2D R/B 3.8 17:25:38 10° S 17:29:25 58° W 17:33:12 10° NNW
Cosmos 2150 Rocket 4.1 17:25:01 10° NNW 17:30:03 50° ENE 17:33:12 22° SE
CZ-4C R/B 3.0 17:23:36 10° NW 17:30:46 83° SW 17:39:12 10° SE
Meteor 2-16 Rocket 4.4 17:25:23 10° N 17:31:32 89° W 17:37:40 10° S
Meteor 2-6 Rocket 4.2 17:26:40 10° S 17:32:19 61° E 17:36:56 15° NNE
H-2A R/B 2.3 17:27:30 10° S 17:32:38 71° WSW 17:37:40 10° NNW
CZ-4B R/B 3.1 17:28:36 10° SSE 17:34:01 89° WSW 17:39:23 10° NNW
Cosmos 841 Rocket 3.8 17:31:13 10° SSW 17:36:20 65° WNW 17:40:21 17° NNE
ATLAS CENTAUR R/B 3.9 17:36:18 10° NNW 17:38:12 12° N 17:39:25 11° N
YAOGAN 3 4.4 17:34:37 10° SSE 17:38:59 83° ENE 17:43:22 10° NNW
USA 308 3.1 17:39:16 10° WNW 17:43:25 51° NNE 17:43:39 50° NNE
COSMO-SKYMED 1 2.4 17:41:39 33° NNE 17:43:37 80° ESE 17:47:57 10° SSW
Lacrosse 5 rocket 1.1 17:40:27 10° NW 17:44:23 84° NE 17:44:49 69° ESE
Cosmos 1125 Rocket 3.4 17:40:04 10° NNW 17:45:17 61° ENE 17:47:31 33° SE
Cosmos 921 Rocket 3.5 17:42:11 10° S 17:45:21 42° SE 17:45:21 42° SE
COSMOS 2455 3.1 17:42:56 10° SW 17:48:56 67° NW 17:52:29 26° NNE
Cosmos 2279 Rocket 4.1 17:44:28 10° SSW 17:50:41 78° W 17:56:56 10° N
Cosmos 1633 Rocket 3.6 17:46:28 10° NNW 17:50:47 59° W 17:55:05 10° S
Helios 1B 4.5 17:49:55 38° NNE 17:51:32 88° WNW 17:55:53 10° SSW
ATLAS 2AS CENTAUR R/B 4.0 17:45:48 10° NW 17:52:03 27° N 17:54:01 24° NNE
ISS -1.8 17:49:10 10° W 17:52:04 26° SW 17:53:03 23° S
Meteor 2-15 Rocket 4.4 17:46:45 10° S 17:52:43 57° E 17:55:52 28° NNE
Cosmos 2360 Rocket 2.9 17:47:48 10° NNW 17:52:12 34° NNE 17:52:12 34° NNE
Cosmos 2266 Rocket 3.9 17:47:12 10° N 17:53:37 74° E 18:00:02 10° SSE
Cosmos 44 Rocket 3.3 17:49:01 10° NW 17:53:58 79° SW 17:56:04 34° SSE
YAOGAN 1 3.9 17:56:50 27° N 17:56:50 27° N 17:58:52 10° N
CZ-4 R/B 3.9 17:59:29 11° N 17:59:29 11° N 17:59:39 10° N
USA 234 4.2 17:49:40 10° SSE 17:55:52 45° SW 18:02:06 10° WNW
Meteor 1-11 Rocket 3.6 17:51:50 10° N 17:57:27 70° ENE 18:03:10 10° SSE
Cosmos 1666 4.0 17:54:01 10° NNW 17:57:30 38° W 18:00:57 10° SSW
Meteor 1-10 Rocket 4.1 17:52:15 10° S 17:57:59 71° E 18:00:37 33° NNE
Cosmos 1151 Rocket 3.9 17:57:25 10° SSW 18:01:37 49° WNW 18:04:41 18° N
USA 305 3.4 18:05:17 10° WNW 18:08:40 51° NW 18:08:40 51° NW
Cosmos 1900 4.2 18:06:49 10° SW 18:11:43 87° NW 18:11:48 85° N
Okean O Rocket 2.6 18:08:40 10° S 18:12:57 47° W 18:17:17 10° NNW
Cosmos 2322 Rocket 2.0 18:08:04 10° NNW 18:13:47 72° ENE 18:13:53 72° ENE
Feng Yun 1-1 Rocket 4.4 18:08:09 10° SSE 18:14:04 80° WSW 18:19:58 10° NNW
Meteor 2-15 4.4 18:09:17 10° SSW 18:15:24 80° W 18:21:06 12° N
Landsat 5 4.1 18:16:56 51° SW 18:16:56 51° SW 18:20:05 10° SSW
Cosmos 1980 Rocket 4.3 18:13:55 10° NW 18:18:33 26° WSW 18:23:08 10° SSW
Cosmos 1470 Rocket 4.4 18:16:33 10° NNW 18:20:52 49° W 18:25:11 10° SSW
SL-16 R/B 2.4 18:26:31 10° NNW 18:32:10 68° WSW 18:33:21 53° S
Cosmos 2082 Rocket 3.5 18:31:22 10° WSW 18:36:32 35° NW 18:38:46 26° N
ATLAS CENTAUR R/B 3.5 18:32:28 10° W 18:37:44 33° NW 18:37:44 33° NW
Cosmos 2333 Rocket 3.8 18:40:17 10° NNW 18:42:44 24° N 18:42:44 24° N
GEOS 3 Rocket 4.3 18:54:52 51° W 18:54:52 51° W 18:59:12 10° NW
USA 267 3.8 19:03:55 48° NNW 19:03:55 48° NNW 19:09:57 10° W
Cosmos 2219 Rocket 4.2 19:00:47 10° NNW 19:02:19 19° NNW 19:02:19 19° NNW
Cosmos 2360 Rocket 4.2 19:31:46 10° NW 19:33:59 23° NW 19:33:59 23° NW
ATLAS 2AS CENTAUR R/B 4.3 19:37:46 10° NW 19:41:26 28° NNW 19:41:26 28° NNW
